This is the latest recevied weather packets stored in our database for station/object KO4ZGL-13. If no packets are shown the sender has not sent any weather packets the latest 10 day(s).
| Time | Temp. | Humidity | Pressure | Rain* | Wind** | Luminosity | Snow |
|---|---|---|---|---|---|---|---|
| 1787782205 | 26.67° C | 95% | 1016.5 hPa | 0 mm | - | 49 W/m² | - |
| 1787781901 | 27.22° C | 94% | 1016.5 hPa | 0 mm | - | 52 W/m² | - |
| 1787781598 | 27.78° C | 94% | 1016.5 hPa | 0 mm | - | 60 W/m² | - |
| 1787781293 | 27.78° C | 93% | 1016.4 hPa | 0 mm | - | 79 W/m² | - |
| 1787780990 | 27.78° C | 94% | 1016.7 hPa | 0 mm | - | 83 W/m² | - |
| 1787780685 | 26.67° C | 95% | 1016.8 hPa | 0 mm | - | 106 W/m² | - |
| 1787780379 | 27.22° C | 96% | 1016.8 hPa | 0 mm | - | 124 W/m² | - |
| 1787780076 | 27.22° C | 98% | 1016.7 hPa | 0 mm | - | 311 W/m² | - |
| 1787779770 | 26.67° C | 99% | 1016.5 hPa | 0 mm | - | 360 W/m² | - |
| 1787779465 | 26.67° C | 99% | 1016.6 hPa | 0 mm | - | 395 W/m² | - |
| 1787779164 | 26.11° C | 99% | 1016.7 hPa | 0 mm | - | 421 W/m² | - |
| 1787778860 | 26.11° C | 99% | 1016.6 hPa | 0 mm | - | 409 W/m² | - |
| 1787778556 | 25.56° C | 99% | 1016.8 hPa | 0 mm | - | 394 W/m² | - |
| 1787778251 | 25.56° C | 99% | 1016.7 hPa | 0 mm | - | 353 W/m² | - |
| 1787777950 | 25.56° C | 99% | 1016.7 hPa | 0 mm | - | 231 W/m² | - |
| 1787777648 | 25.56° C | 99% | 1016.7 hPa | 0 mm | - | 180 W/m² | - |
| 1787777342 | 25° C | 99% | 1016.7 hPa | 0 mm | - | 132 W/m² | - |
| 1787777041 | 25° C | 99% | 1016.6 hPa | 0 mm | - | 116 W/m² | - |
| 1787776740 | 25° C | 99% | 1016.6 hPa | 0 mm | - | 108 W/m² | - |
| 1787776439 | 25° C | 99% | 1016.9 hPa | 0 mm | - | 110 W/m² | - |
| 1787776137 | 25° C | 99% | 1016.8 hPa | 0 mm | - | 115 W/m² | - |
| 1787775832 | 24.44° C | 99% | 1016.5 hPa | 0 mm | - | 117 W/m² | - |
| 1787775527 | 25° C | 99% | 1016.5 hPa | 0 mm | - | 123 W/m² | - |
| 1787775225 | 24.44° C | 99% | 1016.5 hPa | 0 mm | - | 127 W/m² | - |
| 1787774920 | 24.44° C | 99% | 1016.6 hPa | 0 mm | - | 130 W/m² | - |
* Rain latest hour (hover to see other rain measurements)
** Current wind speed in m/s (hover to see current wind gust speed)